Dauntless Aviation
Airports Europe France
LFIY

Saint Jean d'Angely

FRANCE

Airport Info
Suggest Updated Information for this Airport

Location

Latitude / Longitude: 45°57'59"N / 0°31'31"W
  45°57.984'N / 0°31.518'W
  45.9664 / -0.5253

Runway Information

Runway 10 /28

Dimensions: 2789 x 164 ft.
Surface: U
 
Runway 10
Runway 28
Latitude: 45.966636 45.965728
Longitude: -0.528086 -0.518369
Elevation: 243 ft. 243 ft.
Runway true heading: 95.7 275.7
 

Instrument Procedures

IAPs (Instrument Approach Procedures)

  Visual Approach Chart
Satellite photo at:
Airport distance calculator
From:
Weather Reports

METAR

LFBG
20.0nm SE
LFBG 191830Z AUTO 27004KT CAVOK 10/01 Q1027
LFBH
31.0nm W
LFBH 191830Z AUTO 27004KT 9000 NSC 08/05 Q1027 BECMG BKN007
LFBU
34.5nm E
LFBU 191830Z AUTO 30004KT CAVOK 09/00 Q1027 NOSIG

TAF

LFBH
31.0nm W
TAF LFBH 191700Z 1918/2018 32008KT CAVOK BECMG 1920/1922 5000 BKN007 BECMG 2001/2003 BKN012 BECMG 2004/2006 9999 BKN015 BECMG 2010/2012 BKN010 PROB40 TEMPO 2012/2018 3000 -RADZ BKN003
LFBU
34.5nm E
TAF LFBU 191700Z 1918/2018 30004KT CAVOK BECMG 1921/1923 4000 BR BECMG 2000/2002 BKN003 BECMG 2004/2006 BKN005 BECMG 2007/2009 6000 NSW BKN010 BECMG 2010/2012 21005KT 9999 BKN015
Safelog

 

Dauntless Aviation

© 2007-2017 Dauntless Aviation, all rights reserved
Information provided via PilotNav comes from a variety of official and unofficial data sources. As errors are possible, do not use PilotNav for primary flight planning purposes. Verify any information that you receive via PilotNav with current and canonical charts and other official documents. The material in this database is subject to database copyrights held by Dauntless Aviation and may not be copied without the express permission of Dauntless Aviation - licenses for use of part of all of this data are available for purchase; enquire via the Dauntless Aviation helpdesk. A number of mechanisms and markers exist in the database to protect against and identify infringement / copyright. Automated queries against this website are stictly prohibited, and all activity is logged and analyzed.